Time,TemperatureF,DewpointF,PressureIn,WindDirection,WindDirectionDegrees,WindSpeedMPH,WindSpeedGustMPH,Humidity,HourlyPrecipIn,Conditions,Clouds,dailyrainin,SoftwareType,DateUTC
2013-11-27 00:03:00,8.6,3.1,30.43,NNW,332,0.0,2.0,78,0.00,,,0.00,Wunderground v.1.15,2013-11-27 06:03:00,
2013-11-27 00:09:00,8.5,2.8,30.43,NNW,332,0.0,2.0,77,0.00,,,0.00,Wunderground v.1.15,2013-11-27 06:09:00,
2013-11-27 00:15:00,8.4,2.9,30.44,NNW,332,1.0,3.0,78,0.00,,,0.00,Wunderground v.1.15,2013-11-27 06:15:00,
2013-11-27 00:20:00,8.3,2.9,30.44,NNW,332,2.0,2.0,78,0.00,,,0.00,Wunderground v.1.15,2013-11-27 06:20:00,
2013-11-27 00:26:00,8.2,2.8,30.44,NNW,331,0.0,3.0,78,0.00,,,0.00,Wunderground v.1.15,2013-11-27 06:26:00,
2013-11-27 00:32:00,8.3,3.1,30.44,NNW,332,2.0,2.0,79,0.00,,,0.00,Wunderground v.1.15,2013-11-27 06:32:00,
2013-11-27 00:37:00,8.5,3.3,30.43,NNW,332,0.0,2.0,79,0.00,,,0.00,Wunderground v.1.15,2013-11-27 06:37:00,
2013-11-27 00:42:00,8.5,3.3,30.43,NNW,332,1.0,6.0,79,0.00,,,0.00,Wunderground v.1.15,2013-11-27 06:42:00,
2013-11-27 00:48:00,8.3,3.1,30.43,NNW,332,3.0,6.0,79,0.00,,,0.00,Wunderground v.1.15,2013-11-27 06:48:00,
2013-11-27 00:54:00,8.1,2.9,30.43,NNW,332,1.0,2.0,79,0.00,,,0.00,Wunderground v.1.15,2013-11-27 06:54:00,
2013-11-27 01:00:00,7.9,2.7,30.42,NNW,332,0.0,2.0,79,0.00,,,0.00,Wunderground v.1.15,2013-11-27 07:00:00,
2013-11-27 01:05:00,7.8,2.6,30.43,NNW,332,4.0,4.0,79,0.00,,,0.00,Wunderground v.1.15,2013-11-27 07:05:00,
2013-11-27 01:10:00,7.7,2.5,30.43,NNW,332,4.0,4.0,79,0.00,,,0.00,Wunderground v.1.15,2013-11-27 07:10:00,
2013-11-27 01:16:00,7.6,2.4,30.43,NNW,332,1.0,4.0,79,0.00,,,0.00,Wunderground v.1.15,2013-11-27 07:16:00,
2013-11-27 01:22:00,7.4,2.5,30.42,NNW,332,3.0,3.0,80,0.00,,,0.00,Wunderground v.1.15,2013-11-27 07:22:00,
2013-11-27 01:28:00,7.4,2.5,30.42,NNW,331,3.0,4.0,80,0.00,,,0.00,Wunderground v.1.15,2013-11-27 07:28:00,
2013-11-27 01:33:00,7.4,2.5,30.43,NNW,332,4.0,4.0,80,0.00,,,0.00,Wunderground v.1.15,2013-11-27 07:33:00,
2013-11-27 01:39:00,7.3,2.4,30.43,NNW,332,3.0,4.0,80,0.00,,,0.00,Wunderground v.1.15,2013-11-27 07:39:00,
2013-11-27 01:44:00,7.2,2.3,30.43,NNW,331,3.0,3.0,80,0.00,,,0.00,Wunderground v.1.15,2013-11-27 07:44:00,
2013-11-27 01:50:00,7.1,2.2,30.43,NNW,331,0.0,2.0,80,0.00,,,0.00,Wunderground v.1.15,2013-11-27 07:50:00,
2013-11-27 01:55:00,7.0,2.4,30.43,NNW,332,4.0,4.0,81,0.00,,,0.00,Wunderground v.1.15,2013-11-27 07:55:00,
2013-11-27 02:01:00,6.8,1.9,30.44,NNW,332,3.0,3.0,80,0.00,,,0.00,Wunderground v.1.15,2013-11-27 08:01:00,
2013-11-27 02:06:00,6.6,2.0,30.43,NNW,331,0.0,3.0,81,0.00,,,0.00,Wunderground v.1.15,2013-11-27 08:06:00,
2013-11-27 02:11:00,6.4,1.5,30.44,NNW,331,2.0,3.0,80,0.00,,,0.00,Wunderground v.1.15,2013-11-27 08:11:00,
2013-11-27 02:16:00,6.4,1.8,30.44,NNW,332,2.0,4.0,81,0.00,,,0.00,Wunderground v.1.15,2013-11-27 08:16:00,
2013-11-27 02:21:00,6.4,1.8,30.44,NNW,331,2.0,2.0,81,0.00,,,0.00,Wunderground v.1.15,2013-11-27 08:21:00,
2013-11-27 02:26:00,6.4,1.8,30.44,NNW,332,0.0,2.0,81,0.00,,,0.00,Wunderground v.1.15,2013-11-27 08:26:00,
2013-11-27 02:31:00,6.3,1.7,30.44,NNW,331,0.0,2.0,81,0.00,,,0.00,Wunderground v.1.15,2013-11-27 08:31:00,
2013-11-27 02:36:00,6.2,1.6,30.44,NNW,333,1.0,2.0,81,0.00,,,0.00,Wunderground v.1.15,2013-11-27 08:36:00,
2013-11-27 02:41:00,6.1,1.5,30.43,NNW,331,0.0,3.0,81,0.00,,,0.00,Wunderground v.1.15,2013-11-27 08:41:00,
2013-11-27 02:46:00,6.0,1.4,30.43,NNW,332,0.0,3.0,81,0.00,,,0.00,Wunderground v.1.15,2013-11-27 08:46:00,
2013-11-27 02:51:00,5.7,1.1,30.42,NNW,332,0.0,0.0,81,0.00,,,0.00,Wunderground v.1.15,2013-11-27 08:51:00,
2013-11-27 02:56:00,5.5,0.9,30.43,NNW,332,0.0,1.0,81,0.00,,,0.00,Wunderground v.1.15,2013-11-27 08:56:00,
2013-11-27 03:01:00,5.3,0.7,30.42,NNW,332,0.0,0.0,81,0.00,,,0.00,Wunderground v.1.15,2013-11-27 09:01:00,
2013-11-27 03:06:00,5.1,0.5,30.42,NNW,331,0.0,1.0,81,0.00,,,0.00,Wunderground v.1.15,2013-11-27 09:06:00,
2013-11-27 03:11:00,5.0,0.4,30.42,NNW,331,0.0,0.0,81,0.00,,,0.00,Wunderground v.1.15,2013-11-27 09:11:00,
2013-11-27 03:16:00,5.1,0.8,30.42,NNW,332,0.0,2.0,82,0.00,,,0.00,Wunderground v.1.15,2013-11-27 09:16:00,
2013-11-27 03:21:00,5.1,0.5,30.42,NNW,331,0.0,0.0,81,0.00,,,0.00,Wunderground v.1.15,2013-11-27 09:21:00,
2013-11-27 03:26:00,5.0,2.9,30.42,NNW,331,0.0,0.0,91,0.00,,,0.00,Wunderground v.1.15,2013-11-27 09:26:00,
2013-11-27 03:31:00,4.9,0.3,30.42,NNW,332,0.0,0.0,81,0.00,,,0.00,Wunderground v.1.15,2013-11-27 09:31:00,
2013-11-27 03:36:00,4.7,0.2,30.41,NNW,332,0.0,1.0,81,0.00,,,0.00,Wunderground v.1.15,2013-11-27 09:36:00,
2013-11-27 03:41:00,4.6,0.3,30.41,NNW,332,0.0,0.0,82,0.00,,,0.00,Wunderground v.1.15,2013-11-27 09:41:00,
2013-11-27 03:46:00,4.6,0.3,30.41,NNW,331,0.0,0.0,82,0.00,,,0.00,Wunderground v.1.15,2013-11-27 09:46:00,
2013-11-27 03:51:00,4.5,0.2,30.41,NNW,332,0.0,0.0,82,0.00,,,0.00,Wunderground v.1.15,2013-11-27 09:51:00,
2013-11-27 03:56:00,4.5,0.2,30.41,NNW,332,0.0,0.0,82,0.00,,,0.00,Wunderground v.1.15,2013-11-27 09:56:00,
2013-11-27 04:01:00,4.3,0.0,30.41,NNW,331,0.0,0.0,82,0.00,,,0.00,Wunderground v.1.15,2013-11-27 10:01:00,
2013-11-27 04:06:00,4.2,-0.1,30.41,NNW,332,0.0,0.0,82,0.00,,,0.00,Wunderground v.1.15,2013-11-27 10:06:00,
2013-11-27 04:11:00,3.6,-0.9,30.41,NNW,332,0.0,0.0,81,0.00,,,0.00,Wunderground v.1.15,2013-11-27 10:11:00,
2013-11-27 04:16:00,2.9,-1.6,30.41,NNW,331,2.0,3.0,81,0.00,,,0.00,Wunderground v.1.15,2013-11-27 10:16:00,
2013-11-27 04:21:00,3.0,-1.3,30.42,NNW,332,0.0,2.0,82,0.00,,,0.00,Wunderground v.1.15,2013-11-27 10:21:00,
2013-11-27 04:26:00,3.2,-1.1,30.42,NNW,332,0.0,2.0,82,0.00,,,0.00,Wunderground v.1.15,2013-11-27 10:26:00,
2013-11-27 04:31:00,3.2,-1.1,30.42,NNW,331,0.0,0.0,82,0.00,,,0.00,Wunderground v.1.15,2013-11-27 10:31:00,
2013-11-27 04:36:00,3.1,-1.2,30.41,NNW,332,0.0,0.0,82,0.00,,,0.00,Wunderground v.1.15,2013-11-27 10:36:00,
2013-11-27 04:41:00,2.8,-1.4,30.42,NNW,332,0.0,0.0,82,0.00,,,0.00,Wunderground v.1.15,2013-11-27 10:41:00,
2013-11-27 04:46:00,2.6,-1.6,30.42,NNW,332,0.0,0.0,82,0.00,,,0.00,Wunderground v.1.15,2013-11-27 10:46:00,
2013-11-27 04:51:00,1.9,-2.6,30.42,NNW,332,0.0,0.0,81,0.00,,,0.00,Wunderground v.1.15,2013-11-27 10:51:00,
2013-11-27 04:56:00,1.4,-3.1,30.42,NNW,332,0.0,0.0,81,0.00,,,0.00,Wunderground v.1.15,2013-11-27 10:56:00,
2013-11-27 05:01:00,0.9,-3.6,30.42,NNW,332,0.0,0.0,81,0.00,,,0.00,Wunderground v.1.15,2013-11-27 11:01:00,
2013-11-27 05:06:00,0.7,-3.8,30.42,NNW,331,0.0,0.0,81,0.00,,,0.00,Wunderground v.1.15,2013-11-27 11:06:00,
2013-11-27 05:11:00,0.6,-3.6,30.42,NNW,332,0.0,0.0,82,0.00,,,0.00,Wunderground v.1.15,2013-11-27 11:11:00,
2013-11-27 05:17:00,1.0,-3.2,30.42,NNW,332,0.0,0.0,82,0.00,,,0.00,Wunderground v.1.15,2013-11-27 11:17:00,
2013-11-27 05:22:00,0.9,-3.3,30.42,NNW,331,0.0,0.0,82,0.00,,,0.00,Wunderground v.1.15,2013-11-27 11:22:00,
2013-11-27 05:27:00,0.9,-3.3,30.42,NNW,332,0.0,0.0,82,0.00,,,0.00,Wunderground v.1.15,2013-11-27 11:27:00,
2013-11-27 05:32:00,0.8,-3.4,30.42,NNW,332,0.0,0.0,82,0.00,,,0.00,Wunderground v.1.15,2013-11-27 11:32:00,
2013-11-27 05:37:00,0.6,-3.6,30.42,NNW,331,0.0,0.0,82,0.00,,,0.00,Wunderground v.1.15,2013-11-27 11:37:00,
2013-11-27 05:42:00,0.7,-3.5,30.43,NNW,332,0.0,0.0,82,0.00,,,0.00,Wunderground v.1.15,2013-11-27 11:42:00,
2013-11-27 05:47:00,0.9,-3.3,30.43,NNW,331,0.0,0.0,82,0.00,,,0.00,Wunderground v.1.15,2013-11-27 11:47:00,
2013-11-27 05:52:00,0.9,-3.3,30.43,NNW,331,0.0,0.0,82,0.00,,,0.00,Wunderground v.1.15,2013-11-27 11:52:00,
2013-11-27 05:57:00,1.0,-3.2,30.43,NNW,332,0.0,0.0,82,0.00,,,0.00,Wunderground v.1.15,2013-11-27 11:57:00,
2013-11-27 06:02:00,1.4,-2.6,30.42,NNW,332,0.0,0.0,83,0.00,,,0.00,Wunderground v.1.15,2013-11-27 12:02:00,
2013-11-27 06:07:00,1.3,-2.9,30.42,NNW,332,0.0,0.0,82,0.00,,,0.00,Wunderground v.1.15,2013-11-27 12:07:00,
2013-11-27 06:13:00,1.2,-3.0,30.42,NNW,332,0.0,0.0,82,0.00,,,0.00,Wunderground v.1.15,2013-11-27 12:13:00,
2013-11-27 06:18:00,1.2,-3.0,30.42,NNW,332,0.0,0.0,82,0.00,,,0.00,Wunderground v.1.15,2013-11-27 12:18:00,
2013-11-27 06:22:00,0.9,-3.3,30.42,NNW,331,0.0,0.0,82,0.00,,,0.00,Wunderground v.1.15,2013-11-27 12:22:00,
2013-11-27 06:28:00,0.5,-3.7,30.42,NNW,332,0.0,0.0,82,0.00,,,0.00,Wunderground v.1.15,2013-11-27 12:28:00,
2013-11-27 06:33:00,0.1,-4.1,30.42,NNW,331,0.0,0.0,82,0.00,,,0.00,Wunderground v.1.15,2013-11-27 12:33:00,
2013-11-27 06:38:00,-0.1,-4.3,30.42,NNW,331,0.0,0.0,82,0.00,,,0.00,Wunderground v.1.15,2013-11-27 12:38:00,
2013-11-27 06:43:00,0.0,-4.2,30.42,NNW,331,0.0,0.0,82,0.00,,,0.00,Wunderground v.1.15,2013-11-27 12:43:00,
2013-11-27 06:48:00,0.0,-4.2,30.41,NNW,332,0.0,0.0,82,0.00,,,0.00,Wunderground v.1.15,2013-11-27 12:48:00,
2013-11-27 06:53:00,0.2,-4.0,30.41,NNW,331,0.0,0.0,82,0.00,,,0.00,Wunderground v.1.15,2013-11-27 12:53:00,
2013-11-27 06:58:00,0.1,-4.1,30.41,NNW,332,0.0,0.0,82,0.00,,,0.00,Wunderground v.1.15,2013-11-27 12:58:00,
2013-11-27 07:03:00,0.0,-4.2,30.40,NNW,332,0.0,0.0,82,0.00,,,0.00,Wunderground v.1.15,2013-11-27 13:03:00,
2013-11-27 07:08:00,-0.3,-4.5,30.41,NNW,332,0.0,0.0,82,0.00,,,0.00,Wunderground v.1.15,2013-11-27 13:08:00,
2013-11-27 07:13:00,-0.3,-4.5,30.40,NNW,332,0.0,0.0,82,0.00,,,0.00,Wunderground v.1.15,2013-11-27 13:13:00,
2013-11-27 07:18:00,-0.1,-4.3,30.40,NNW,332,0.0,0.0,82,0.00,,,0.00,Wunderground v.1.15,2013-11-27 13:18:00,
2013-11-27 07:23:00,0.1,-3.8,30.41,NNW,332,0.0,0.0,83,0.00,,,0.00,Wunderground v.1.15,2013-11-27 13:23:00,
2013-11-27 07:28:00,0.1,-4.1,30.41,NNW,331,0.0,0.0,82,0.00,,,0.00,Wunderground v.1.15,2013-11-27 13:28:00,
2013-11-27 07:33:00,-0.1,-4.3,30.41,NNW,331,0.0,0.0,82,0.00,,,0.00,Wunderground v.1.15,2013-11-27 13:33:00,
2013-11-27 07:38:00,-0.2,-4.4,30.41,NNW,332,0.0,0.0,82,0.00,,,0.00,Wunderground v.1.15,2013-11-27 13:38:00,
2013-11-27 07:43:00,-0.1,-4.3,30.41,NNW,331,0.0,0.0,82,0.00,,,0.00,Wunderground v.1.15,2013-11-27 13:43:00,
2013-11-27 07:48:00,0.1,-4.1,30.40,NNW,332,0.0,0.0,82,0.00,,,0.00,Wunderground v.1.15,2013-11-27 13:48:00,
2013-11-27 07:53:00,0.3,-3.9,30.40,NNW,331,0.0,0.0,82,0.00,,,0.00,Wunderground v.1.15,2013-11-27 13:53:00,
2013-11-27 07:58:00,0.9,-3.1,30.40,NNW,332,0.0,0.0,83,0.00,,,0.00,Wunderground v.1.15,2013-11-27 13:58:00,
2013-11-27 08:03:00,1.8,-2.2,30.40,NNW,331,0.0,0.0,83,0.00,,,0.00,Wunderground v.1.15,2013-11-27 14:03:00,
2013-11-27 08:08:00,2.2,-1.8,30.40,NNW,331,0.0,0.0,83,0.00,,,0.00,Wunderground v.1.15,2013-11-27 14:08:00,
2013-11-27 08:13:00,2.4,-1.6,30.40,NNW,332,0.0,0.0,83,0.00,,,0.00,Wunderground v.1.15,2013-11-27 14:13:00,
2013-11-27 08:18:00,2.9,-1.1,30.40,NNW,332,0.0,0.0,83,0.00,,,0.00,Wunderground v.1.15,2013-11-27 14:18:00,
2013-11-27 08:23:00,3.8,-0.2,30.40,NNW,332,0.0,0.0,83,0.00,,,0.00,Wunderground v.1.15,2013-11-27 14:23:00,
2013-11-27 08:28:00,4.7,0.7,30.40,NNW,331,0.0,0.0,83,0.00,,,0.00,Wunderground v.1.15,2013-11-27 14:28:00,
2013-11-27 08:33:00,5.4,1.4,30.40,NNW,332,0.0,0.0,83,0.00,,,0.00,Wunderground v.1.15,2013-11-27 14:33:00,
2013-11-27 08:38:00,6.1,2.0,30.39,NNW,331,0.0,0.0,83,0.00,,,0.00,Wunderground v.1.15,2013-11-27 14:38:00,
2013-11-27 08:43:00,7.2,3.4,30.39,NNW,331,0.0,0.0,84,0.00,,,0.00,Wunderground v.1.15,2013-11-27 14:43:00,
2013-11-27 08:48:00,8.2,4.4,30.39,NNW,332,0.0,0.0,84,0.00,,,0.00,Wunderground v.1.15,2013-11-27 14:48:00,
2013-11-27 08:53:00,8.8,5.0,30.39,NNW,332,0.0,0.0,84,0.00,,,0.00,Wunderground v.1.15,2013-11-27 14:53:00,
2013-11-27 08:58:00,9.5,5.6,30.39,NNW,331,0.0,1.0,84,0.00,,,0.00,Wunderground v.1.15,2013-11-27 14:58:00,
2013-11-27 09:04:00,10.2,6.1,30.38,NNW,333,1.0,2.0,83,0.00,,,0.00,Wunderground v.1.15,2013-11-27 15:04:00,
2013-11-27 09:09:00,10.7,6.6,30.38,NNW,331,1.0,3.0,83,0.00,,,0.00,Wunderground v.1.15,2013-11-27 15:09:00,
2013-11-27 09:14:00,11.6,7.4,30.38,NNW,345,3.0,5.0,83,0.00,,,0.00,Wunderground v.1.15,2013-11-27 15:14:00,
2013-11-27 09:19:00,12.1,7.9,30.38,NNE,29,4.0,6.0,83,0.00,,,0.00,Wunderground v.1.15,2013-11-27 15:19:00,
2013-11-27 09:24:00,11.8,7.4,30.38,NE,42,3.0,6.0,82,0.00,,,0.00,Wunderground v.1.15,2013-11-27 15:24:00,
2013-11-27 09:29:00,11.7,7.3,30.38,NE,44,3.0,7.0,82,0.00,,,0.00,Wunderground v.1.15,2013-11-27 15:29:00,
2013-11-27 09:34:00,12.7,8.2,30.38,NE,49,4.0,5.0,82,0.00,,,0.00,Wunderground v.1.15,2013-11-27 15:34:00,
2013-11-27 09:39:00,13.0,8.5,30.38,NE,55,1.0,6.0,82,0.00,,,0.00,Wunderground v.1.15,2013-11-27 15:39:00,
2013-11-27 09:44:00,12.9,8.2,30.39,ENE,58,2.0,5.0,81,0.00,,,0.00,Wunderground v.1.15,2013-11-27 15:44:00,
2013-11-27 09:49:00,13.0,8.3,30.39,ENE,58,2.0,5.0,81,0.00,,,0.00,Wunderground v.1.15,2013-11-27 15:49:00,
2013-11-27 09:54:00,13.1,8.4,30.38,ENE,62,5.0,7.0,81,0.00,,,0.00,Wunderground v.1.15,2013-11-27 15:54:00,
2013-11-27 09:59:00,13.1,8.1,30.38,East,86,1.0,9.0,80,0.00,,,0.00,Wunderground v.1.15,2013-11-27 15:59:00,
2013-11-27 10:04:00,14.3,9.3,30.37,ESE,121,8.0,11.0,80,0.00,,,0.00,Wunderground v.1.15,2013-11-27 16:04:00,
2013-11-27 10:09:00,14.6,9.3,30.37,SE,137,4.0,11.0,79,0.00,,,0.00,Wunderground v.1.15,2013-11-27 16:09:00,
2013-11-27 10:14:00,14.3,8.7,30.36,SE,146,3.0,9.0,78,0.00,,,0.00,Wunderground v.1.15,2013-11-27 16:14:00,
2013-11-27 10:19:00,13.9,8.0,30.36,SE,146,3.0,9.0,77,0.00,,,0.00,Wunderground v.1.15,2013-11-27 16:19:00,
2013-11-27 10:24:00,14.0,8.1,30.36,SSE,150,6.0,9.0,77,0.00,,,0.00,Wunderground v.1.15,2013-11-27 16:24:00,
2013-11-27 10:29:00,15.2,9.3,30.36,SSE,160,9.0,11.0,77,0.00,,,0.00,Wunderground v.1.15,2013-11-27 16:29:00,
2013-11-27 10:34:00,15.2,8.7,30.35,SSE,167,3.0,9.0,75,0.00,,,0.00,Wunderground v.1.15,2013-11-27 16:34:00,
2013-11-27 10:39:00,15.7,8.9,30.35,South,184,9.0,11.0,74,0.00,,,0.00,Wunderground v.1.15,2013-11-27 16:39:00,
2013-11-27 10:44:00,16.2,9.4,30.35,South,190,4.0,11.0,74,0.00,,,0.00,Wunderground v.1.15,2013-11-27 16:44:00,
2013-11-27 10:49:00,15.6,8.5,30.36,South,188,4.0,11.0,73,0.00,,,0.00,Wunderground v.1.15,2013-11-27 16:49:00,
2013-11-27 10:54:00,15.6,8.5,30.35,South,188,6.0,11.0,73,0.00,,,0.00,Wunderground v.1.15,2013-11-27 16:54:00,
2013-11-27 10:59:00,16.6,9.4,30.35,South,188,11.0,11.0,73,0.00,,,0.00,Wunderground v.1.15,2013-11-27 16:59:00,
2013-11-27 11:04:00,16.3,8.5,30.34,South,181,6.0,11.0,71,0.00,,,0.00,Wunderground v.1.15,2013-11-27 17:04:00,
2013-11-27 11:09:00,16.4,8.6,30.34,South,176,5.0,11.0,71,0.00,,,0.00,Wunderground v.1.15,2013-11-27 17:09:00,
2013-11-27 11:14:00,17.0,8.9,30.33,South,176,8.0,11.0,70,0.00,,,0.00,Wunderground v.1.15,2013-11-27 17:14:00,
2013-11-27 11:19:00,17.3,8.9,30.32,South,181,12.0,12.0,69,0.00,,,0.00,Wunderground v.1.15,2013-11-27 17:19:00,
2013-11-27 11:24:00,17.5,9.1,30.32,South,179,8.0,14.0,69,0.00,,,0.00,Wunderground v.1.15,2013-11-27 17:24:00,
2013-11-27 11:29:00,17.4,8.6,30.32,South,183,10.0,14.0,68,0.00,,,0.00,Wunderground v.1.15,2013-11-27 17:29:00,
2013-11-27 11:34:00,17.9,9.1,30.31,South,178,9.0,11.0,68,0.00,,,0.00,Wunderground v.1.15,2013-11-27 17:34:00,
2013-11-27 11:39:00,18.1,9.0,30.31,South,188,10.0,12.0,67,0.00,,,0.00,Wunderground v.1.15,2013-11-27 17:39:00,
2013-11-27 11:44:00,18.5,9.0,30.30,South,175,11.0,14.0,66,0.00,,,0.00,Wunderground v.1.15,2013-11-27 17:44:00,
2013-11-27 11:49:00,18.8,9.3,30.29,South,171,11.0,14.0,66,0.00,,,0.00,Wunderground v.1.15,2013-11-27 17:49:00,
2013-11-27 11:54:00,18.5,8.7,30.29,South,178,6.0,14.0,65,0.00,,,0.00,Wunderground v.1.15,2013-11-27 17:54:00,
2013-11-27 11:59:00,19.1,9.3,30.28,South,175,8.0,14.0,65,0.00,,,0.00,Wunderground v.1.15,2013-11-27 17:59:00,
2013-11-27 12:04:00,19.4,9.2,30.28,South,178,6.0,14.0,64,0.00,,,0.00,Wunderground v.1.15,2013-11-27 18:04:00,
2013-11-27 12:09:00,19.9,9.3,30.28,South,184,13.0,14.0,63,0.00,,,0.00,Wunderground v.1.15,2013-11-27 18:09:00,
2013-11-27 12:14:00,19.9,9.0,30.27,South,187,13.0,15.0,62,0.00,,,0.00,Wunderground v.1.15,2013-11-27 18:14:00,
2013-11-27 12:19:00,19.7,8.8,30.26,South,178,5.0,15.0,62,0.00,,,0.00,Wunderground v.1.15,2013-11-27 18:19:00,
2013-11-27 12:24:00,19.7,8.8,30.26,South,178,7.0,13.0,62,0.00,,,0.00,Wunderground v.1.15,2013-11-27 18:24:00,
2013-11-27 12:29:00,20.8,9.8,30.26,South,172,9.0,13.0,62,0.00,,,0.00,Wunderground v.1.15,2013-11-27 18:29:00,
2013-11-27 12:34:00,20.8,9.8,30.25,South,191,14.0,17.0,62,0.00,,,0.00,Wunderground v.1.15,2013-11-27 18:34:00,
2013-11-27 12:39:00,21.2,10.2,30.25,SSE,168,10.0,17.0,62,0.00,,,0.00,Wunderground v.1.15,2013-11-27 18:39:00,
2013-11-27 12:44:00,21.0,10.0,30.25,South,175,8.0,14.0,62,0.00,,,0.00,Wunderground v.1.15,2013-11-27 18:44:00,
2013-11-27 12:49:00,21.3,9.9,30.24,SSE,167,7.0,14.0,61,0.00,,,0.00,Wunderground v.1.15,2013-11-27 18:49:00,
2013-11-27 12:54:00,21.4,10.0,30.24,SSE,163,10.0,13.0,61,0.00,,,0.00,Wunderground v.1.15,2013-11-27 18:54:00,
2013-11-27 12:56:00,21.5,10.1,30.24,SSE,157,6.0,15.0,61,0.00,,,0.00,Wunderground v.1.15,2013-11-27 18:56:00,
2013-11-27 13:01:00,22.1,10.3,30.23,South,177,7.0,11.0,60,0.00,,,0.00,Wunderground v.1.15,2013-11-27 19:01:00,
2013-11-27 13:06:00,22.7,10.5,30.23,South,175,6.0,13.0,59,0.00,,,0.00,Wunderground v.1.15,2013-11-27 19:06:00,
2013-11-27 13:11:00,22.7,10.1,30.23,SSE,158,9.0,14.0,58,0.00,,,0.00,Wunderground v.1.15,2013-11-27 19:11:00,
2013-11-27 13:16:00,22.4,9.8,30.22,South,169,6.0,15.0,58,0.00,,,0.00,Wunderground v.1.15,2013-11-27 19:16:00,
2013-11-27 13:21:00,22.7,10.1,30.21,South,171,11.0,13.0,58,0.00,,,0.00,Wunderground v.1.15,2013-11-27 19:21:00,
2013-11-27 13:26:00,23.3,10.3,30.20,South,186,8.0,15.0,57,0.00,,,0.00,Wunderground v.1.15,2013-11-27 19:26:00,
2013-11-27 13:31:00,22.9,9.5,30.21,SSE,163,9.0,15.0,56,0.00,,,0.00,Wunderground v.1.15,2013-11-27 19:31:00,
2013-11-27 13:36:00,23.4,9.6,30.20,South,172,7.0,15.0,55,0.00,,,0.00,Wunderground v.1.15,2013-11-27 19:36:00,
2013-11-27 13:42:00,23.3,9.9,30.20,SSE,161,9.0,13.0,56,0.00,,,0.00,Wunderground v.1.15,2013-11-27 19:42:00,
2013-11-27 13:46:00,23.7,9.9,30.19,SSE,160,8.0,13.0,55,0.00,,,0.00,Wunderground v.1.15,2013-11-27 19:46:00,
2013-11-27 13:52:00,24.0,10.2,30.19,SSE,153,11.0,15.0,55,0.00,,,0.00,Wunderground v.1.15,2013-11-27 19:52:00,
2013-11-27 13:56:00,24.2,9.9,30.19,South,181,8.0,16.0,54,0.00,,,0.00,Wunderground v.1.15,2013-11-27 19:56:00,
2013-11-27 14:02:00,24.6,9.9,30.18,SSE,163,5.0,16.0,53,0.00,,,0.00,Wunderground v.1.15,2013-11-27 20:02:00,
2013-11-27 14:07:00,24.9,9.7,30.18,SSE,163,7.0,16.0,52,0.00,,,0.00,Wunderground v.1.15,2013-11-27 20:07:00,
2013-11-27 14:12:00,24.8,9.6,30.17,SSE,155,12.0,15.0,52,0.00,,,0.00,Wunderground v.1.15,2013-11-27 20:12:00,
2013-11-27 14:17:00,24.9,10.2,30.17,SSE,167,11.0,15.0,53,0.00,,,0.00,Wunderground v.1.15,2013-11-27 20:17:00,
2013-11-27 14:22:00,25.4,9.8,30.16,South,176,10.0,16.0,51,0.00,,,0.00,Wunderground v.1.15,2013-11-27 20:22:00,
2013-11-27 14:27:00,25.1,9.5,30.16,SSE,161,12.0,16.0,51,0.00,,,0.00,Wunderground v.1.15,2013-11-27 20:27:00,
2013-11-27 14:32:00,25.2,9.6,30.16,South,173,13.0,16.0,51,0.00,,,0.00,Wunderground v.1.15,2013-11-27 20:32:00,
2013-11-27 14:37:00,25.2,9.6,30.15,SSE,163,12.0,17.0,51,0.00,,,0.00,Wunderground v.1.15,2013-11-27 20:37:00,
2013-11-27 14:42:00,25.3,9.7,30.15,South,184,15.0,15.0,51,0.00,,,0.00,Wunderground v.1.15,2013-11-27 20:42:00,
2013-11-27 14:47:00,25.0,9.4,30.14,South,171,4.0,17.0,51,0.00,,,0.00,Wunderground v.1.15,2013-11-27 20:47:00,
2013-11-27 14:52:00,25.4,9.8,30.14,South,177,6.0,12.0,51,0.00,,,0.00,Wunderground v.1.15,2013-11-27 20:52:00,
2013-11-27 14:57:00,25.2,9.6,30.14,South,175,11.0,14.0,51,0.00,,,0.00,Wunderground v.1.15,2013-11-27 20:57:00,
2013-11-27 15:02:00,25.2,9.6,30.14,South,170,11.0,11.0,51,0.00,,,0.00,Wunderground v.1.15,2013-11-27 21:02:00,
2013-11-27 15:07:00,25.4,9.8,30.14,SSE,149,10.0,16.0,51,0.00,,,0.00,Wunderground v.1.15,2013-11-27 21:07:00,
2013-11-27 15:12:00,25.5,9.9,30.13,SE,142,15.0,15.0,51,0.00,,,0.00,Wunderground v.1.15,2013-11-27 21:12:00,
2013-11-27 15:17:00,25.7,10.0,30.13,SSE,156,4.0,15.0,51,0.00,,,0.00,Wunderground v.1.15,2013-11-27 21:17:00,
2013-11-27 15:22:00,25.6,10.0,30.13,SSE,162,9.0,12.0,51,0.00,,,0.00,Wunderground v.1.15,2013-11-27 21:22:00,
2013-11-27 15:27:00,25.3,9.7,30.12,SE,145,10.0,16.0,51,0.00,,,0.00,Wunderground v.1.15,2013-11-27 21:27:00,
2013-11-27 15:32:00,25.3,9.7,30.12,SSE,160,8.0,17.0,51,0.00,,,0.00,Wunderground v.1.15,2013-11-27 21:32:00,
2013-11-27 15:37:00,25.0,9.4,30.11,SSE,148,8.0,17.0,51,0.00,,,0.00,Wunderground v.1.15,2013-11-27 21:37:00,
2013-11-27 15:42:00,24.8,9.6,30.11,SSE,156,7.0,13.0,52,0.00,,,0.00,Wunderground v.1.15,2013-11-27 21:42:00,
2013-11-27 15:47:00,24.7,9.5,30.10,SE,141,13.0,17.0,52,0.00,,,0.00,Wunderground v.1.15,2013-11-27 21:47:00,
2013-11-27 15:53:00,24.6,9.5,30.08,SE,146,12.0,20.0,52,0.00,,,0.00,Wunderground v.1.15,2013-11-27 21:53:00,
2013-11-27 15:58:00,24.7,9.5,30.08,SSE,159,11.0,20.0,52,0.00,,,0.00,Wunderground v.1.15,2013-11-27 21:58:00,
2013-11-27 16:03:00,24.7,9.5,30.09,SE,140,13.0,17.0,52,0.00,,,0.00,Wunderground v.1.15,2013-11-27 22:03:00,
2013-11-27 16:08:00,24.8,9.6,30.09,SSE,152,14.0,18.0,52,0.00,,,0.00,Wunderground v.1.15,2013-11-27 22:08:00,
2013-11-27 16:13:00,24.8,9.6,30.08,SSE,156,12.0,14.0,52,0.00,,,0.00,Wunderground v.1.15,2013-11-27 22:13:00,
2013-11-27 16:18:00,24.8,9.6,30.08,SSE,160,5.0,16.0,52,0.00,,,0.00,Wunderground v.1.15,2013-11-27 22:18:00,
2013-11-27 16:23:00,24.9,9.7,30.09,SSE,155,10.0,14.0,52,0.00,,,0.00,Wunderground v.1.15,2013-11-27 22:23:00,
2013-11-27 16:28:00,25.1,9.9,30.09,SSE,167,4.0,14.0,52,0.00,,,0.00,Wunderground v.1.15,2013-11-27 22:28:00,
2013-11-27 16:33:00,25.0,9.8,30.08,South,171,9.0,17.0,52,0.00,,,0.00,Wunderground v.1.15,2013-11-27 22:33:00,
2013-11-27 16:38:00,25.0,9.8,30.08,South,175,6.0,17.0,52,0.00,,,0.00,Wunderground v.1.15,2013-11-27 22:38:00,
2013-11-27 16:43:00,24.8,9.6,30.08,SSE,161,9.0,14.0,52,0.00,,,0.00,Wunderground v.1.15,2013-11-27 22:43:00,
2013-11-27 16:48:00,24.6,9.9,30.07,South,176,9.0,19.0,53,0.00,,,0.00,Wunderground v.1.15,2013-11-27 22:48:00,
2013-11-27 16:53:00,24.5,9.8,30.07,South,173,9.0,16.0,53,0.00,,,0.00,Wunderground v.1.15,2013-11-27 22:53:00,
2013-11-27 16:58:00,24.4,9.7,30.07,South,173,12.0,18.0,53,0.00,,,0.00,Wunderground v.1.15,2013-11-27 22:58:00,
2013-11-27 17:03:00,24.2,9.9,30.07,South,169,11.0,13.0,54,0.00,,,0.00,Wunderground v.1.15,2013-11-27 23:03:00,
2013-11-27 17:08:00,24.2,9.9,30.08,South,176,9.0,18.0,54,0.00,,,0.00,Wunderground v.1.15,2013-11-27 23:08:00,
2013-11-27 17:13:00,24.2,9.9,30.08,South,182,8.0,17.0,54,0.00,,,0.00,Wunderground v.1.15,2013-11-27 23:13:00,
2013-11-27 17:18:00,24.1,10.2,30.08,South,186,7.0,18.0,55,0.00,,,0.00,Wunderground v.1.15,2013-11-27 23:18:00,
2013-11-27 17:23:00,23.9,10.1,30.07,SSE,167,7.0,14.0,55,0.00,,,0.00,Wunderground v.1.15,2013-11-27 23:23:00,
2013-11-27 17:28:00,23.8,10.0,30.07,South,174,7.0,16.0,55,0.00,,,0.00,Wunderground v.1.15,2013-11-27 23:28:00,
2013-11-27 17:33:00,23.6,10.2,30.06,South,176,12.0,16.0,56,0.00,,,0.00,Wunderground v.1.15,2013-11-27 23:33:00,
2013-11-27 17:38:00,23.8,10.4,30.07,South,182,10.0,16.0,56,0.00,,,0.00,Wunderground v.1.15,2013-11-27 23:38:00,
2013-11-27 17:43:00,23.8,10.4,30.07,SSE,167,13.0,17.0,56,0.00,,,0.00,Wunderground v.1.15,2013-11-27 23:43:00,
2013-11-27 17:48:00,23.6,10.6,30.07,South,184,10.0,17.0,57,0.00,,,0.00,Wunderground v.1.15,2013-11-27 23:48:00,
2013-11-27 17:53:00,23.5,10.5,30.07,SSW,192,10.0,15.0,57,0.00,,,0.00,Wunderground v.1.15,2013-11-27 23:53:00,
2013-11-27 17:58:00,23.4,10.4,30.07,South,190,11.0,15.0,57,0.00,,,0.00,Wunderground v.1.15,2013-11-27 23:58:00,
2013-11-27 18:03:00,23.3,10.3,30.08,SSE,164,8.0,15.0,57,0.00,,,0.00,Wunderground v.1.15,2013-11-28 00:03:00,
2013-11-27 18:08:00,23.1,10.1,30.08,South,188,9.0,15.0,57,0.00,,,0.00,Wunderground v.1.15,2013-11-28 00:08:00,
2013-11-27 18:13:00,23.0,10.0,30.08,South,182,5.0,11.0,57,0.00,,,0.00,Wunderground v.1.15,2013-11-28 00:13:00,
2013-11-27 18:19:00,22.6,10.0,30.08,South,175,8.0,11.0,58,0.00,,,0.00,Wunderground v.1.15,2013-11-28 00:19:00,
2013-11-27 18:24:00,22.5,10.3,30.07,South,186,11.0,16.0,59,0.00,,,0.00,Wunderground v.1.15,2013-11-28 00:24:00,
2013-11-27 18:29:00,22.5,10.3,30.07,South,180,8.0,16.0,59,0.00,,,0.00,Wunderground v.1.15,2013-11-28 00:29:00,
2013-11-27 18:34:00,22.5,10.3,30.07,South,179,13.0,13.0,59,0.00,,,0.00,Wunderground v.1.15,2013-11-28 00:34:00,
2013-11-27 18:39:00,22.5,10.3,30.07,South,171,10.0,13.0,59,0.00,,,0.00,Wunderground v.1.15,2013-11-28 00:39:00,
2013-11-27 18:44:00,22.4,10.2,30.07,South,173,6.0,11.0,59,0.00,,,0.00,Wunderground v.1.15,2013-11-28 00:44:00,
2013-11-27 18:49:00,22.2,10.4,30.07,SSE,168,9.0,12.0,60,0.00,,,0.00,Wunderground v.1.15,2013-11-28 00:49:00,
2013-11-27 18:54:00,22.1,10.3,30.07,South,180,5.0,12.0,60,0.00,,,0.00,Wunderground v.1.15,2013-11-28 00:54:00,
2013-11-27 18:59:00,21.9,10.5,30.07,SSE,165,9.0,12.0,61,0.00,,,0.00,Wunderground v.1.15,2013-11-28 00:59:00,
2013-11-27 19:04:00,21.8,10.4,30.07,South,173,9.0,10.0,61,0.00,,,0.00,Wunderground v.1.15,2013-11-28 01:04:00,
2013-11-27 19:09:00,21.7,10.3,30.07,South,174,8.0,11.0,61,0.00,,,0.00,Wunderground v.1.15,2013-11-28 01:09:00,
2013-11-27 19:14:00,21.6,10.6,30.07,South,172,3.0,10.0,62,0.00,,,0.00,Wunderground v.1.15,2013-11-28 01:14:00,
2013-11-27 19:19:00,21.5,10.5,30.07,South,175,2.0,10.0,62,0.00,,,0.00,Wunderground v.1.15,2013-11-28 01:19:00,
2013-11-27 19:24:00,21.2,10.2,30.06,SSE,166,1.0,10.0,62,0.00,,,0.00,Wunderground v.1.15,2013-11-28 01:24:00,
2013-11-27 19:29:00,21.2,10.2,30.07,South,171,2.0,10.0,62,0.00,,,0.00,Wunderground v.1.15,2013-11-28 01:29:00,
2013-11-27 19:34:00,20.9,10.3,30.06,South,169,7.0,7.0,63,0.00,,,0.00,Wunderground v.1.15,2013-11-28 01:34:00,
2013-11-27 19:39:00,20.7,10.1,30.06,SSE,168,8.0,8.0,63,0.00,,,0.00,Wunderground v.1.15,2013-11-28 01:39:00,
2013-11-27 19:44:00,20.9,10.3,30.06,South,171,6.0,10.0,63,0.00,,,0.00,Wunderground v.1.15,2013-11-28 01:44:00,
2013-11-27 19:49:00,20.9,10.3,30.05,SSE,165,4.0,10.0,63,0.00,,,0.00,Wunderground v.1.15,2013-11-28 01:49:00,
2013-11-27 19:54:00,20.9,10.3,30.05,SSE,163,6.0,10.0,63,0.00,,,0.00,Wunderground v.1.15,2013-11-28 01:54:00,
2013-11-27 19:59:00,21.0,10.4,30.05,SSE,163,3.0,10.0,63,0.00,,,0.00,Wunderground v.1.15,2013-11-28 01:59:00,
2013-11-27 20:04:00,21.0,10.4,30.05,SSE,165,4.0,9.0,63,0.00,,,0.00,Wunderground v.1.15,2013-11-28 02:04:00,
2013-11-27 20:09:00,20.9,10.3,30.04,SSE,164,3.0,10.0,63,0.00,,,0.00,Wunderground v.1.15,2013-11-28 02:09:00,
2013-11-27 20:14:00,20.9,10.3,30.04,SSE,167,5.0,9.0,63,0.00,,,0.00,Wunderground v.1.15,2013-11-28 02:14:00,
2013-11-27 20:19:00,21.0,10.7,30.04,SSE,161,8.0,11.0,64,0.00,,,0.00,Wunderground v.1.15,2013-11-28 02:19:00,
2013-11-27 20:24:00,20.9,10.3,30.04,SSE,161,2.0,7.0,63,0.00,,,0.00,Wunderground v.1.15,2013-11-28 02:24:00,
2013-11-27 20:29:00,20.8,10.5,30.04,SSE,163,3.0,9.0,64,0.00,,,0.00,Wunderground v.1.15,2013-11-28 02:29:00,
2013-11-27 20:34:00,20.6,10.3,30.04,SSE,163,4.0,6.0,64,0.00,,,0.00,Wunderground v.1.15,2013-11-28 02:34:00,
2013-11-27 20:39:00,20.4,10.1,30.04,SSE,163,3.0,7.0,64,0.00,,,0.00,Wunderground v.1.15,2013-11-28 02:39:00,
2013-11-27 20:44:00,20.4,10.1,30.04,SSE,164,3.0,7.0,64,0.00,,,0.00,Wunderground v.1.15,2013-11-28 02:44:00,
2013-11-27 20:49:00,20.2,10.3,30.04,SSE,165,5.0,7.0,65,0.00,,,0.00,Wunderground v.1.15,2013-11-28 02:49:00,
2013-11-27 20:54:00,20.2,10.3,30.04,SSE,164,2.0,8.0,65,0.00,,,0.00,Wunderground v.1.15,2013-11-28 02:54:00,
2013-11-27 20:59:00,20.0,10.1,30.04,SSE,164,5.0,8.0,65,0.00,,,0.00,Wunderground v.1.15,2013-11-28 02:59:00,
2013-11-27 21:04:00,20.0,10.5,30.04,SSE,164,4.0,5.0,66,0.00,,,0.00,Wunderground v.1.15,2013-11-28 03:04:00,
2013-11-27 21:09:00,19.9,10.4,30.04,SSE,161,4.0,8.0,66,0.00,,,0.00,Wunderground v.1.15,2013-11-28 03:09:00,
2013-11-27 21:14:00,19.9,10.4,30.04,SSE,161,3.0,7.0,66,0.00,,,0.00,Wunderground v.1.15,2013-11-28 03:14:00,
2013-11-27 21:20:00,20.0,10.5,30.04,SSE,161,2.0,7.0,66,0.00,,,0.00,Wunderground v.1.15,2013-11-28 03:20:00,
2013-11-27 21:25:00,19.7,10.2,30.04,SSE,161,1.0,4.0,66,0.00,,,0.00,Wunderground v.1.15,2013-11-28 03:25:00,
2013-11-27 21:30:00,19.7,10.2,30.04,SSE,161,2.0,5.0,66,0.00,,,0.00,Wunderground v.1.15,2013-11-28 03:30:00,
2013-11-27 21:35:00,19.7,10.5,30.04,SSE,161,1.0,3.0,67,0.00,,,0.00,Wunderground v.1.15,2013-11-28 03:35:00,
2013-11-27 21:40:00,19.4,10.2,30.04,SSE,161,1.0,1.0,67,0.00,,,0.00,Wunderground v.1.15,2013-11-28 03:40:00,
2013-11-27 21:45:00,19.4,10.6,30.04,SSE,161,2.0,4.0,68,0.00,,,0.00,Wunderground v.1.15,2013-11-28 03:45:00,
2013-11-27 21:50:00,19.2,10.4,30.04,SSE,161,2.0,2.0,68,0.00,,,0.00,Wunderground v.1.15,2013-11-28 03:50:00,
2013-11-27 21:55:00,19.2,10.4,30.04,SSE,161,2.0,5.0,68,0.00,,,0.00,Wunderground v.1.15,2013-11-28 03:55:00,
2013-11-27 22:00:00,18.8,10.0,30.04,SSE,161,1.0,2.0,68,0.00,,,0.00,Wunderground v.1.15,2013-11-28 04:00:00,
2013-11-27 22:05:00,17.9,9.1,30.04,SSE,161,3.0,3.0,68,0.00,,,0.00,Wunderground v.1.15,2013-11-28 04:05:00,
2013-11-27 22:10:00,17.2,8.8,30.04,SSE,161,2.0,2.0,69,0.00,,,0.00,Wunderground v.1.15,2013-11-28 04:10:00,
2013-11-27 22:15:00,16.8,8.7,30.04,SSE,161,0.0,2.0,70,0.00,,,0.00,Wunderground v.1.15,2013-11-28 04:15:00,
2013-11-27 22:20:00,16.2,8.1,30.04,SSE,161,0.0,0.0,70,0.00,,,0.00,Wunderground v.1.15,2013-11-28 04:20:00,
2013-11-27 22:25:00,15.3,7.3,30.04,SSE,161,0.0,0.0,70,0.00,,,0.00,Wunderground v.1.15,2013-11-28 04:25:00,
2013-11-27 22:30:00,15.4,8.0,30.04,SSE,161,0.0,0.0,72,0.00,,,0.00,Wunderground v.1.15,2013-11-28 04:30:00,
2013-11-27 22:35:00,15.2,7.5,30.04,SSE,161,0.0,0.0,71,0.00,,,0.00,Wunderground v.1.15,2013-11-28 04:35:00,
2013-11-27 22:40:00,13.7,5.7,30.04,SSE,161,0.0,0.0,70,0.00,,,0.00,Wunderground v.1.15,2013-11-28 04:40:00,
2013-11-27 22:45:00,12.9,5.6,30.04,SSE,161,0.0,0.0,72,0.00,,,0.00,Wunderground v.1.15,2013-11-28 04:45:00,
2013-11-27 22:50:00,13.0,6.3,30.04,SSE,161,3.0,3.0,74,0.00,,,0.00,Wunderground v.1.15,2013-11-28 04:50:00,
2013-11-27 22:55:00,13.9,7.4,30.04,SSE,161,0.0,5.0,75,0.00,,,0.00,Wunderground v.1.15,2013-11-28 04:55:00,
2013-11-27 23:00:00,14.2,7.7,30.04,SSE,161,3.0,3.0,75,0.00,,,0.00,Wunderground v.1.15,2013-11-28 05:00:00,
2013-11-27 23:01:00,14.2,7.7,30.04,SSE,161,1.0,3.0,75,0.00,,,0.00,Wunderground v.1.15,2013-11-28 05:01:00,
2013-11-27 23:02:00,14.2,7.7,30.04,SSE,161,0.0,3.0,75,0.00,,,0.00,Wunderground v.1.15,2013-11-28 05:02:00,
2013-11-27 23:07:00,13.9,7.4,30.04,SSE,161,0.0,3.0,75,0.00,,,0.00,Wunderground v.1.15,2013-11-28 05:07:00,
2013-11-27 23:12:00,13.4,7.0,30.05,SSE,161,0.0,2.0,75,0.00,,,0.00,Wunderground v.1.15,2013-11-28 05:12:00,
2013-11-27 23:18:00,13.3,6.9,30.05,SSE,161,0.0,2.0,75,0.00,,,0.00,Wunderground v.1.15,2013-11-28 05:18:00,
2013-11-27 23:23:00,13.0,6.6,30.05,SSE,161,0.0,0.0,75,0.00,,,0.00,Wunderground v.1.15,2013-11-28 05:23:00,
2013-11-27 23:28:00,13.2,7.0,30.05,SSE,160,0.0,0.0,76,0.00,,,0.00,Wunderground v.1.15,2013-11-28 05:28:00,
2013-11-27 23:33:00,12.8,6.4,30.06,SSE,161,0.0,0.0,75,0.00,,,0.00,Wunderground v.1.15,2013-11-28 05:33:00,
2013-11-27 23:38:00,12.3,5.9,30.06,SSE,161,0.0,0.0,75,0.00,,,0.00,Wunderground v.1.15,2013-11-28 05:38:00,
2013-11-27 23:43:00,11.9,5.8,30.06,SSE,161,0.0,0.0,76,0.00,,,0.00,Wunderground v.1.15,2013-11-28 05:43:00,
2013-11-27 23:48:00,11.4,5.3,30.06,SSE,161,2.0,2.0,76,0.00,,,0.00,Wunderground v.1.15,2013-11-28 05:48:00,
2013-11-27 23:53:00,11.2,5.4,30.06,SSE,160,0.0,1.0,77,0.00,,,0.00,Wunderground v.1.15,2013-11-28 05:53:00,
2013-11-27 23:58:00,10.5,4.7,30.06,SSE,161,2.0,2.0,77,0.00,,,0.00,Wunderground v.1.15,2013-11-28 05:58:00,